Regional Weather Roundup
Issued by NWS

Home | Current Version | Previous Version | Text Only | Print | Product List | Glossary Off
Versions: 1 2 3 4 5 6 7 8 9 10 11 12 13 14 15 16 17 18 19 20 21 22 23 24 25 26 27 28 29 30 31 32 33 34 35 36 37 38 39 40 41 42 43 44 45 46 47 48 49 50

000
ASUS43 KMPX 281501
RWRMN
WEATHER ROUNDUP FOR MINNESOTA
NATIONAL WEATHER SERVICE TWIN CITIES/CHANHASSEN MN
1000 AM CDT TUE APR 28 2015


NOTE: "FAIR" INDICATES FEW OR NO CLOUDS BELOW 12,000 FEET WITH NO
SIGNIFICANT WEATHER AND/OR OBSTRUCTIONS TO VISIBILITY. N/A MEANS
CURRENT SKY AND/OR WEATHER CONDITIONS ARE NOT AVAILABLE.

MNZ060>063-068>070-281600-
   Twin Cities Metro

CITY           SKY/WX    TMP DP  RH WIND       PRES   REMARKS
TWIN CITIES    PTSUNNY   56  35  45 N12       30.16F
ST PAUL        PTSUNNY   57  33  40 NW12      30.16F
CRYSTAL        CLOUDY    58  36  43 N9        30.15F
BLAINE         CLOUDY    55  36  47 N8        30.16F
LAKEVILLE      MOSUNNY   55  36  47 NW5       30.15S
EDEN PRAIRIE   CLOUDY    56  37  49 N8        30.15F
SOUTH ST PAUL  PTSUNNY   58  33  37 NW8       30.15S
LAKE ELMO      FAIR      55  34  44 N3        30.15F
$$
MNZ001>005-007-008-013>017-022>024-027-028-281600-
   Northwest Minnesota

CITY           SKY/WX    TMP DP  RH WIND       PRES   REMARKS
BEMIDJI        CLOUDY    44  41  91 NE9       30.25S
HALLOCK        CLOUDY    43  43 100 CALM      30.29S
ROSEAU         SUNNY     46  39  76 NW3       30.27F
WARROAD        SUNNY     46  39  76 W3        30.27F
THIEF RVR FALL MOSUNNY   48  39  71 N7        30.28F
CROOKSTON      MOSUNNY   43  43 100 CALM      30.30F
FOSSTON        SUNNY     46  43  87 N7        30.27F
DETROIT LAKES  CLOUDY    46  43  87 N12G17    30.26F
MOORHEAD       PTSUNNY   45  41  87 N13       30.29S
PARK RAPIDS    LGT RAIN  46  43  89 N9        30.23S FOG
MAHNOMEN       PTSUNNY   44  40  85 N9        30.26F
$$
MNZ006-009>011-018-025>026-281600-
   North Central Minnesota

CITY           SKY/WX    TMP DP  RH WIND       PRES   REMARKS
BAUDETTE       PTSUNNY   45  39  79 NW9G18    30.25F
FLAG ISLAND    SUNNY     45  36  70 NW9       30.25F
INTL FALLS     MOSUNNY   48  39  71 NW9       30.21F
WASKISH        CLOUDY    43  39  87 CALM      30.25F
BIG FORK       DRIZZLE   45  43  93 N5        30.23S
LONGVILLE      CLOUDY    46  45  93 NW7       30.22R
GRAND RAPIDS   PTSUNNY   52  43  71 N10       30.20S
CRANE LAKE     CLOUDY    46  43  87 N6        30.22F
ORR            CLOUDY    46  43  87 NW6       30.19S
COOK           PTSUNNY   54  45  71 NW8       30.20S
WALKER         CLOUDY    44  42  95 N9        30.24R
$$
MNZ012-019>021-037-281600-
   Northeast Minnesota

CITY           SKY/WX    TMP DP  RH WIND       PRES   REMARKS
DULUTH         PTSUNNY   57  35  43 N10       30.15F
ELY            PTSUNNY   52  43  71 N3        30.16F
HIBBING        CLOUDY    55  43  63 N9        30.17S
EVELETH        PTSUNNY   55  43  62 N8        30.17F
DULUTH HARBOR  MOSUNNY   48  36  61 CALM      30.17F
TWO HARBORS    MOSUNNY   64  41  42 NW5       30.12F
SILVER BAY     MOSUNNY   63  36  36 NW7       30.11F
GRAND MARAIS     N/A     39  33  79 SW9       30.13F
G MARAIS ARPRT MOSUNNY   54  27  35 N9        30.14S
$$
MNZ029>031-032-039>041-046>048-054>057-064-281600-
   West Central Minnesota

CITY           SKY/WX    TMP DP  RH WIND       PRES   REMARKS
FERGUS FALLS   CLOUDY    46  45  93 N12G18    30.26F
WHEATON        CLOUDY    45  43  93 NW17G23   30.28F
MORRIS         CLOUDY    46  46 100 NW16G22   30.23S FOG
ALEXANDRIA     CLOUDY    50  46  86 NW9       30.22R
ELBOW LAKE     CLOUDY    46  45  99 N14       30.24S FOG
WADENA         DRIZZLE   46  45  93 N8        30.22F
GLENWOOD       PTSUNNY   52  45  76 N9        30.21S
APPLETON       LGT RAIN  50  45  81 NW15      30.24S
BENSON         CLOUDY    48  45  87 N12       30.23R
ORTONVILLE     CLOUDY    46  43  87 N15       30.26R
MADISON        LGT RAIN  52  45  76 N21       30.25R
WILLMAR        FAIR      55  46  71 N12       30.20S
$$
MNZ033>034-036-042>043-049>051-058-059-281600-
   Central Minnesota

CITY           SKY/WX    TMP DP  RH WIND       PRES   REMARKS
ST CLOUD       CLOUDY    55  45  68 NE9       30.16F
SAUK CENTRE    PTSUNNY   53  46  76 N8        30.19F
PAYNESVILLE    DRIZZLE   52  44  72 W9        30.18F
AITKIN         CLOUDY    57  46  67 N8        30.17S
PINE RIVER     CLOUDY    48  45  87 NW7       30.24R
BRAINERD       PTSUNNY   52  45  77 N9        30.19F
STAPLES        CLOUDY    48  45  87 NW6       30.21S
LONG PRAIRIE   CLOUDY    52  45  76 N8        30.20S
LITTLE FALLS   PTSUNNY   52  45  76 N3        30.18S
LITCHFIELD     CLOUDY    57  45  62 CALM      30.18F
BUFFALO        CLOUDY    55  42  60 N10G16    30.17F
MAPLE LAKE     CLOUDY    56  45  66 N9        30.18F
$$
MNZ037-044-045-052-053-281600-
   East Central Minnesota

CITY           SKY/WX    TMP DP  RH WIND       PRES   REMARKS
PRINCETON      CLOUDY    57  45  62 N9        30.17F
MORA           CLOUDY    55  41  58 N8G16     30.18F
CAMBRIDGE      CLOUDY    57  41  54 N12       30.15S
RUSH CITY      PTSUNNY   54  34  46 N7        30.17F
MOOSE LAKE     CLOUDY    59  37  44 N9        30.14F
HINCKLEY       FAIR      55  37  50 N7        30.16S
CLOQUET        PTSUNNY   57  34  41 NW12G17   30.15F
MCGREGOR       PTSUNNY   54  43  66 N8        30.18S
$$
MNZ071>073-080-081-089-090-097-098-281600-
   Southwest Minnesota

CITY           SKY/WX    TMP DP  RH WIND       PRES   REMARKS
MONTEVIDEO     PTSUNNY   54  46  76 N15       30.23R
GRANITE FALLS  PTSUNNY   54  45  70 NW14      30.22S
CANBY          CLOUDY    50  44  78 N14G23    30.25S
MARSHALL       PTSUNNY   52  39  62 NW16      30.22R
REDWOOD FALLS  PTSUNNY   56  43  61 NW8       30.19S
OLIVIA         PTSUNNY   54  41  62 NW10      30.18S
PIPESTONE      PTSUNNY   52  43  71 N9        30.21F
WINDOM         PTSUNNY   57  41  54 VRB13     30.19F
WORTHINGTON    PTSUNNY   55  41  58 N14       30.20F
JACKSON        PTSUNNY   59  37  44 VRB10     30.19F
TRACY          PTSUNNY   54  44  69 NW13      30.21F
SLAYTON        CLOUDY    53  44  71 CALM      30.21F
$$
MNZ065>067-074>077-082>085-091>093-281600-
   South Central Minnesota

CITY           SKY/WX    TMP DP  RH WIND       PRES   REMARKS
MANKATO        PTSUNNY   55  34  44 N7        30.17F
NEW ULM        CLOUDY    57  39  51 N6        30.17F
ST JAMES       PTSUNNY   57  37  47 NW12      30.19F
FAIRMONT       MOSUNNY   57  37  47 NW9       30.17F
GLENCOE        CLOUDY    59  45  59 N9        30.16F
FARIBAULT      MOSUNNY   63  32  31 W7        30.15F
OWATONNA       MOSUNNY   61  28  29 NW5       30.15F
WASECA         MOSUNNY   57  36  44 NW3       30.17F
ALBERT LEA     MOSUNNY   64  28  25 N5        30.15F
$$
MNZ078>079-086>088-094>096-281600-
   Southeast Minnesota

CITY           SKY/WX    TMP DP  RH WIND       PRES   REMARKS
ROCHESTER      SUNNY     62  29  28 W3        30.15F
RED WING       SUNNY     61  36  39 CALM      30.13F
STANTON        MOSUNNY   61  33  34 NW7       30.13F
DODGE CENTER   SUNNY     63  34  34 CALM      30.14F
WINONA         SUNNY     55  37  50 CALM      30.16F
AUSTIN         SUNNY     61  34  36 CALM      30.15F
PRESTON        SUNNY     58  33  39 W3        30.16F
$$
ABBREVIATIONS USED IN REMARKS
   TC - TEMPERATURES IN CELSIUS
  WCI - WIND CHILL INDEX
   HX - HEAT INDEX
  VSB - VISIBILITY
$$



USA.gov is the U.S. government's official web portal to all federal, state and local government web resources and services.